FW1048 Weather Reports


time (UTC)temp
C
wind
direction
speed
KPH
gust
KPH
rain 1hr
cm
rain 24hr
cm
rain mn
cm
humidity
%
barometer
mb
20260506185312 13 255 3.2 4.8 0.10 5.08 4.04 97 1009.4
20260506184812 13 255 1.6 4.8 0.03 5.05 3.96 97 1009.4
20260506184311 13 255 1.6 4.8 0.03 5.16 3.96 97 1009.3
20260506183812 13 252 1.6 4.8 0.03 5.23 3.96 97 1009.3
20260506182811 13 252 0.0 4.8 0.05 5.31 3.94 97 1009.5
20260506182312 13 252 0.0 4.8 0.05 5.41 3.94 97 1009.5
20260506181812 13 142 1.6 4.8 0.10 5.46 3.94 97 1009.4
20260506181311 13 265 0.0 4.8 0.15 5.51 3.94 97 1009.4
20260506180812 13 250 1.6 4.8 0.23 5.54 3.94 97 1009.4
20260506175811 13 147 3.2 4.8 0.23 5.59 3.94 97 1009.6
20260506174811 13 126 3.2 8.0 0.23 5.64 3.94 97 1009.6
20260506174312 13 109 3.2 9.7 0.23 5.69 3.94 97 1009.6
20260506173811 14 157 4.8 14.5 0.23 5.71 3.94 97 1009.3
20260506173312 14 127 8.0 14.5 0.23 5.74 3.94 97 1009.2
20260506172812 14 123 3.2 4.8 0.18 5.71 3.91 97 1009.1
20260506172312 14 123 3.2 4.8 0.15 5.74 3.89 97 1009.0
20260506171811 14 75 1.6 4.8 0.13 5.71 3.84 97 1008.9
20260506171311 14 318 1.6 4.8 0.05 5.69 3.78 97 1008.8
20260506170811 13 317 1.6 4.8 0.00 5.61 3.71 97 1008.6
20260506170312 13 317 0.0 1.6 0.00 5.69 3.71 97 1008.6
20260506165811 13 317 0.0 4.8 0.00 5.69 3.71 97 1008.6
20260506165311 13 317 1.6 4.8 0.00 5.69 3.71 97 1008.7
20260506164812 13 317 3.2 4.8 0.00 5.74 3.71 97 1008.8
20260506164311 14 317 1.6 3.2 0.00 5.79 3.71 97 1008.8
20260506163811 14 317 0.0 1.6 0.00 5.82 3.71 97 1008.9
20260506163312 14 317 0.0 1.6 0.00 5.82 3.71 97 1009.0
20260506162812 14 317 0.0 4.8 0.00 5.84 3.71 97 1009.0
20260506162311 14 317 0.0 4.8 0.00 5.84 3.71 97 1009.0
20260506161311 14 22 1.6 4.8 0.00 5.87 3.71 97 1009.1
20260506160811 14 25 3.2 3.2 0.00 5.89 3.71 97 1009.1
20260506155811 14 25 1.6 3.2 0.00 5.92 3.71 97 1009.2
20260506155311 14 25 1.6 3.2 0.00 5.92 3.71 97 1009.3
20260506154812 14 25 1.6 4.8 0.00 5.94 3.71 97 1009.3
20260506154311 14 25 1.6 4.8 0.00 5.94 3.71 97 1009.4
20260506153813 14 25 1.6 4.8 0.00 5.94 3.71 97 1009.4
20260506153311 14 77 0.0 4.8 0.00 5.94 3.71 97 1009.5
20260506151811 13 329 3.2 4.8 0.00 5.97 3.71 97 1009.7
20260506151311 13 329 1.6 3.2 0.00 5.97 3.71 97 1009.7
20260506150812 13 329 0.0 3.2 0.00 5.97 3.71 97 1009.7
20260506150311 13 329 0.0 4.8 0.00 5.97 3.71 97 1009.7
20260506145811 13 329 1.6 4.8 0.00 5.97 3.71 97 1009.7
20260506144811 14 329 4.8 4.8 0.00 5.97 3.71 97 1009.8
20260506144312 14 324 1.6 9.7 0.00 5.97 3.71 97 1009.9
20260506143811 14 324 4.8 9.7 0.00 5.97 3.71 96 1009.9
20260506142811 14 299 1.6 4.8 0.03 5.99 3.71 96 1010.1
20260506142311 14 299 0.0 3.2 0.03 5.99 3.71 96 1010.1
20260506141811 14 299 0.0 4.8 0.03 5.99 3.71 96 1010.1
20260506141311 14 299 0.0 4.8 0.05 5.99 3.71 96 1010.1
20260506140811 14 299 0.0 4.8 0.08 6.02 3.71 96 1010.1
20260506140311 14 299 0.0 3.2 0.10 6.02 3.71 96 1010.2
20260506135811 14 299 0.0 3.2 0.15 6.02 3.71 96 1010.3
20260506135311 14 299 1.6 4.8 0.20 6.02 3.71 96 1010.3
20260506134311 14 26 1.6 3.2 0.30 6.05 3.71 96 1010.4
20260506133811 14 118 1.6 4.8 0.33 6.05 3.71 97 1010.4
20260506133311 14 118 0.0 8.0 0.33 6.05 3.71 97 1010.5
20260506132810 14 123 3.2 8.0 0.36 6.07 3.71 97 1010.5
20260506132311 14 179 3.2 11.3 0.41 6.07 3.71 97 1010.5
20260506131312 14 99 1.6 4.8 0.43 6.07 3.68 97 1010.5
20260506130810 14 267 1.6 3.2 0.46 6.02 3.63 97 1010.6
20260506130311 14 267 0.0 3.2 0.46 6.02 3.63 97 1010.5
20260506125811 14 267 0.0 3.2 0.43 5.97 3.58 97 1010.4
20260506125311 13 267 1.6 4.8 0.43 5.92 3.53 97 1010.5
20260506124811 13 267 0.0 4.8 0.43 5.87 3.45 97 1010.4
20260506124311 13 266 0.0 3.2 0.43 5.84 3.43 97 1010.5
20260506123811 13 266 0.0 4.8 0.43 5.79 3.38 97 1010.4
20260506123311 13 266 1.6 4.8 0.48 5.79 3.38 97 1010.4
20260506122811 13 266 3.2 4.8 0.48 5.79 3.33 97 1010.5
20260506121810 13 0 1.6 4.8 0.51 5.77 3.30 97 1010.7
20260506121311 13 140 3.2 4.8 0.46 5.71 3.25 98 1010.7
20260506120810 13 274 0.0 4.8 0.41 5.66 3.17 98 1010.7
20260506120311 13 266 1.6 4.8 0.38 5.66 3.15 98 1010.7
20260506115811 13 192 1.6 4.8 0.36 5.66 3.15 98 1010.8
20260506115310 14 64 1.6 4.8 0.33 5.64 3.10 98 1010.9
20260506114811 13 136 0.0 4.8 0.28 5.59 3.05 98 1010.7
20260506113811 13 172 0.0 1.6 0.20 5.51 2.95 98 1010.5
20260506113311 13 172 0.0 1.6 0.20 5.51 2.90 98 1010.5
20260506112810 13 172 0.0 3.2 0.18 5.49 2.87 98 1010.6
20260506112311 13 172 0.0 3.2 0.15 5.49 2.84 98 1010.7
20260506111811 13 172 1.6 3.2 0.15 5.46 2.79 98 1010.7
20260506111312 13 172 0.0 3.2 0.13 5.44 2.77 98 1010.7
20260506105811 13 172 1.6 4.8 0.13 5.51 2.77 98 1010.7
20260506105311 14 172 1.6 3.2 0.13 5.51 2.77 98 1010.8
20260506104811 14 172 1.6 1.6 0.10 5.49 2.77 98 1010.7
20260506104311 14 172 0.0 3.2 0.13 5.51 2.77 98 1010.7
20260506103811 14 172 1.6 3.2 0.10 5.49 2.74 98 1010.7
20260506103310 14 171 0.0 1.6 0.05 5.44 2.69 98 1010.8
20260506102810 14 171 0.0 1.6 0.05 5.41 2.69 98 1011.0
20260506102311 13 171 0.0 1.6 0.05 5.41 2.69 98 1011.1
20260506101811 14 171 0.0 1.6 0.05 5.41 2.67 98 1011.0
20260506101311 13 171 0.0 3.2 0.05 5.41 2.67 98 1011.2
20260506100811 13 171 0.0 3.2 0.05 5.41 2.67 98 1011.2
20260506100311 13 171 0.0 0.0 0.05 5.41 2.67 98 1011.1
20260506095810 13 171 0.0 0.0 0.08 5.41 2.67 98 1011.1
20260506095310 13 171 0.0 0.0 0.10 5.41 2.67 98 1011.2
20260506094810 13 171 0.0 0.0 0.15 5.41 2.67 98 1011.2
20260506094311 13 171 0.0 0.0 0.15 5.38 2.64 98 1011.2
20260506092811 13 171 0.0 3.2 0.33 5.38 2.64 98 1011.3
20260506092310 13 171 1.6 3.2 0.43 5.38 2.64 98 1011.3
20260506091810 13 171 0.0 1.6 0.53 5.36 2.62 98 1011.3
20260506091310 13 171 0.0 3.2 0.61 5.36 2.62 98 1011.3
20260506090811 13 171 0.0 4.8 0.71 5.36 2.62 98 1011.3
20260506090310 13 172 0.0 4.8 0.74 5.33 2.59 98 1011.3
20260506085810 13 240 1.6 4.8 0.79 5.31 2.59 98 1011.2
20260506085311 13 240 0.0 3.2 0.79 5.31 2.57 98 1011.4
20260506084810 13 105 0.0 3.2 0.76 5.26 2.51 98 1011.3
20260506084311 13 105 1.6 8.0 0.79 5.23 2.49 98 1011.5
20260506083810 12 105 0.0 8.0 0.76 5.21 2.46 98 1011.5
20260506083310 12 130 1.6 4.8 0.74 5.13 2.39 98 1011.3
20260506082811 12 119 1.6 4.8 0.71 5.05 2.31 98 1011.2
20260506082312 12 119 1.6 4.8 0.64 4.93 2.21 98 1011.3
20260506081811 12 133 3.2 4.8 0.58 4.83 2.08 98 1011.2
20260506081310 13 115 1.6 4.8 0.56 4.75 2.01 98 1011.1
20260506080310 13 165 1.6 4.8 0.56 4.60 1.85 98 1010.9
20260506073311 13 164 0.0 0.0 0.61 4.39 1.65 98 1011.3
20260506072810 13 164 0.0 0.0 0.61 4.34 1.60 98 1011.3
20260506072310 13 164 0.0 1.6 0.56 4.29 1.55 98 1011.3
20260506071810 13 164 0.0 1.6 0.51 4.24 1.50 98 1011.3
20260506071310 13 164 0.0 0.0 0.43 4.19 1.45 98 1011.3
20260506070810 13 164 0.0 4.8 0.36 4.09 1.37 98 1011.3
20260506070310 13 167 0.0 4.8 0.30 4.04 1.30 98 1011.3
20260506062310 13 153 0.0 3.2 0.00 3.73 0.99 98 1011.0
20260506061810 13 145 0.0 0.0 0.00 3.73 0.99 98 1011.1
20260506060811 13 145 0.0 3.2 0.00 3.73 0.99 98 1011.0
20260506060310 13 145 0.0 3.2 0.00 3.73 0.99 98 1011.0
20260506051310 12 148 0.0 0.0 0.00 3.73 0.99 98 1011.0
20260506050810 12 148 0.0 4.8 0.00 3.73 0.99 98 1011.0
20260506050310 12 147 0.0 4.8 0.00 3.73 0.99 98 1011.1
20260506043310 12 252 0.0 3.2 0.00 3.73 0.99 98 1010.8
20260506042810 12 252 1.6 3.2 0.00 3.73 0.99 98 1011.0
20260506042310 12 252 1.6 1.6 0.00 3.73 0.99 98 1011.1
20260506041809 12 252 0.0 1.6 0.00 3.73 0.99 98 1011.1
20260506040810 12 252 0.0 3.2 0.10 3.73 0.99 98 1011.2
20260506040310 12 252 1.6 3.2 0.15 3.73 0.99 98 1011.2
20260506035810 12 252 0.0 3.2 0.28 3.73 0.99 98 1011.2
20260506035310 12 252 0.0 1.6 0.30 3.73 0.99 98 1011.2
20260506034810 12 252 0.0 1.6 0.30 3.73 0.99 98 1011.2
20260506034310 12 252 0.0 0.0 0.30 3.73 0.99 98 1011.3
20260506033309 12 252 0.0 0.0 0.30 3.73 0.99 98 1011.2
20260506032810 12 252 0.0 0.0 0.30 3.73 0.99 98 1011.3
20260506032310 12 252 0.0 0.0 0.30 3.73 0.99 98 1011.3
20260506031810 12 252 0.0 1.6 0.30 3.73 0.99 98 1011.3
20260506030810 12 252 0.0 3.2 0.20 3.63 0.89 98 1011.3
20260506025810 12 252 0.0 0.0 0.03 3.45 0.71 98 1011.4
20260506025310 12 252 0.0 0.0 0.00 3.43 0.71 98 1011.5
20260506024810 12 252 0.0 0.0 0.00 3.43 0.71 98 1011.4
20260506024310 12 252 0.0 0.0 0.00 3.43 0.71 98 1011.4
20260506023809 12 252 0.0 0.0 0.00 3.43 0.71 98 1011.6
20260506023310 12 252 0.0 0.0 0.00 3.43 0.71 98 1011.5
20260506022810 12 252 0.0 0.0 0.00 3.43 0.71 98 1011.6
20260506022310 12 252 0.0 1.6 0.00 3.43 0.71 98 1011.7
20260506021809 12 252 0.0 1.6 0.00 3.43 0.71 98 1011.8
20260506021310 12 252 0.0 3.2 0.03 3.43 0.71 98 1011.9
20260506020810 12 252 0.0 3.2 0.03 3.43 0.71 98 1011.9
20260506020310 12 252 1.6 3.2 0.05 3.43 0.71 98 1011.9
20260506015810 12 252 0.0 3.2 0.05 3.43 0.71 98 1011.8
20260506015310 12 246 1.6 3.2 0.05 3.43 0.71 98 1012.0
20260506014810 12 246 1.6 3.2 0.08 3.43 0.71 98 1011.9
20260506014309 12 246 0.0 1.6 0.10 3.43 0.71 98 1011.9
20260506013810 12 246 0.0 0.0 0.13 3.43 0.71 98 1011.8
20260506013310 12 246 0.0 0.0 0.13 3.43 0.71 98 1011.8
20260506012809 12 246 0.0 0.0 0.15 3.43 0.71 98 1011.8
20260506012310 12 246 0.0 0.0 0.15 3.43 0.71 98 1011.6
20260506011809 12 246 0.0 0.0 0.23 3.43 0.71 98 1011.7
20260506011310 12 246 0.0 0.0 0.20 3.43 0.69 98 1011.6
20260506010809 12 246 0.0 0.0 0.20 3.43 0.69 98 1011.6
20260506010310 12 246 0.0 0.0 0.18 3.40 0.66 98 1011.6
20260506005810 12 246 0.0 0.0 0.15 3.38 0.64 98 1011.6
20260506005310 12 246 0.0 0.0 0.15 3.38 0.64 98 1011.5
20260506004809 12 246 0.0 1.6 0.15 3.35 0.61 98 1011.6
20260506004310 12 246 0.0 3.2 0.13 3.33 0.61 98 1011.5
20260506003809 12 246 0.0 3.2 0.10 3.33 0.58 98 1011.5
20260506003310 12 246 0.0 3.2 0.13 3.33 0.58 98 1011.6
20260506001809 12 246 1.6 1.6 0.15 3.23 0.48 98 1011.6
20260506001310 12 246 0.0 0.0 0.20 3.23 0.48 98 1011.7
20260506000809 12 246 0.0 1.6 0.25 3.23 0.48 98 1011.8
20260506000309 12 246 1.6 1.6 0.33 3.23 0.48 98 1011.9
20260505235809 12 246 0.0 1.6 0.38 3.23 0.48 98 1011.9
20260505235310 12 246 0.0 1.6 0.43 3.23 0.48 98 1011.9
20260505234810 12 246 0.0 3.2 0.46 3.23 0.48 98 1012.0
20260505234310 12 246 0.0 3.2 0.46 3.23 0.48 98 1012.0
20260505233809 12 246 0.0 1.6 0.46 3.23 0.48 98 1012.1
20260505232810 12 246 1.6 3.2 0.43 3.17 0.43 98 1012.3
20260505232309 12 246 1.6 3.2 0.38 3.12 0.38 98 1012.2
20260505231809 12 246 0.0 1.6 0.33 3.05 0.33 98 1012.3
20260505231310 12 246 0.0 0.0 0.28 3.02 0.28 98 1012.4
20260505230810 12 246 0.0 3.2 0.23 2.97 0.23 98 1012.5
20260505230309 12 246 1.6 3.2 0.15 2.90 0.15 98 1012.4
20260505225809 12 246 0.0 3.2 0.10 2.84 0.10 98 1012.3
20260505225310 12 246 0.0 3.2 0.05 2.77 0.05 98 1012.2
20260505224809 12 246 0.0 3.2 0.03 2.77 0.03 98 1012.1
20260505224309 12 246 0.0 3.2 0.03 2.77 0.03 98 1012.2
20260505223809 12 246 0.0 0.0 0.03 2.77 0.03 98 1012.3
20260505223309 12 245 0.0 3.2 0.00 2.74 0.00 98 1012.3
20260505222809 12 245 0.0 3.2 0.00 2.74 0.00 98 1012.4
20260505222309 12 224 1.6 3.2 0.03 2.74 0.00 98 1012.5
20260505221809 12 177 0.0 3.2 0.05 2.74 0.00 98 1012.5
20260505221309 12 177 0.0 3.2 0.05 2.74 0.00 98 1012.6
20260505220817 12 177 0.0 1.6 0.05 2.74 0.00 98 1012.6
20260505220309 12 177 0.0 3.2 0.05 2.74 0.00 98 1012.5
20260505215310 12 177 1.6 4.8 0.05 2.74 2.74 98 1012.5
20260505214809 12 177 1.6 4.8 0.05 2.74 2.74 97 1012.5
20260505214308 12 268 1.6 4.8 0.05 2.74 2.74 97 1012.6
20260505213809 12 304 1.6 3.2 0.05 2.74 2.74 98 1012.6
20260505213309 12 304 0.0 3.2 0.05 2.74 2.74 98 1012.6
20260505212309 12 304 0.0 3.2 0.05 2.72 2.72 98 1012.7
20260505211809 12 304 0.0 3.2 0.05 2.69 2.69 97 1012.8
20260505211309 12 304 0.0 3.2 0.05 2.69 2.69 97 1012.7
20260505210809 12 304 0.0 1.6 0.13 2.69 2.69 97 1012.8
20260505205809 12 304 0.0 1.6 0.15 2.69 2.69 97 1012.8
20260505204809 12 304 0.0 3.2 0.33 2.69 2.69 97 1012.8
20260505204309 12 304 1.6 3.2 0.36 2.69 2.69 97 1012.8
20260505203309 12 304 0.0 4.8 0.51 2.69 2.69 97 1012.7
20260505202309 12 306 3.2 4.8 0.64 2.69 2.69 97 1012.8
20260505201309 12 17 0.0 3.2 0.71 2.64 2.64 97 1012.8
20260505200809 12 17 0.0 1.6 0.74 2.59 2.59 97 1012.8
20260505200309 12 17 0.0 3.2 0.79 2.59 2.59 97 1012.8
20260505195809 12 17 0.0 4.8 0.79 2.54 2.54 97 1012.8
20260505195309 12 337 0.0 4.8 0.79 2.49 2.49 97 1012.8
20260505194809 12 69 0.0 3.2 0.74 2.39 2.39 97 1012.9
20260505194309 12 69 0.0 1.6 0.79 2.31 2.31 97 1012.8
20260505193809 12 69 0.0 1.6 0.76 2.21 2.21 97 1012.8
20260505193310 12 69 0.0 3.2 0.76 2.16 2.16 97 1012.6
20260505192809 12 69 0.0 3.2 0.74 2.11 2.11 97 1012.8
20260505191309 12 323 0.0 1.6 0.74 1.93 1.93 96 1012.5
20260505190809 12 323 0.0 3.2 0.71 1.83 1.83 96 1012.5
20260505190308 12 323 1.6 4.8 0.66 1.78 1.78 96 1012.5
20260505185809 12 323 1.6 4.8 0.64 1.75 1.75 96 1012.5